Regional Weather Roundup
Issued by NWS

Home | Current Version | Previous Version | Text Only | Print | Product List | Glossary On
Versions: 1 2 3 4 5 6 7 8 9 10 11 12 13 14 15 16 17 18 19 20 21 22 23 24 25 26 27 28 29 30 31 32 33 34 35 36 37 38 39 40 41 42 43 44 45 46 47 48 49 50
484
ASUS43 KIND 141909
RWRIN

WEATHER ROUNDUP FOR INDIANA
NATIONAL WEATHER SERVICE INDIANAPOLIS IN
200 PM EST SUN FEB 14 2016

NOTE: "FAIR" INDICATES FEW OR NO CLOUDS BELOW 12,000 FEET WITH NO
SIGNIFICANT WEATHER AND/OR OBSTRUCTIONS TO VISIBILITY.

* - STATION DOES NOT REPORT WEATHER SUCH AS PRECIPITATION OR FOG.

+ - STATION NOT QUALITY CONTROLLED BY THE NATIONAL WEATHER SERVICE.
    USE DATA WITH CAUTION...ESPECIALLY DEWPOINT AND RELATIVE
    HUMIDITY OBSERVATIONS.

INZ001>003-010>013-019-020-142000-
NORTHWEST INDIANA

CITY           SKY/WX    TMP DP  RH WIND       PRES   REMARKS
GARY /AIRPORT/ LGT SNOW  18  10  73 SE14      30.25F VSB 1   WCI   4
KNOX *+        CLOUDY    18   5  57 SE12G18   30.24F WCI   5
LA PORTE +     CLOUDY    18   6  58 SE10      30.24F WCI   6
MICHIGAN CITY+ CLOUDY    18   3  53 SE10      30.25F WCI   6
MONTICELLO +   SNOW      17  11  78 SE8       30.21F VSB 1/2 WCI   7
RENSSELAER +   LGT SNOW  19  14  79 E14       30.21F WCI   6
VALPARAISO     SNOW      16  10  77 SE9       30.23F WCI   4

$$

LMZ046-743>745-142000-
SOUTHERN LAKE MICHIGAN

STATION/POSITION TIME  TEMP    WIND        PRES    WAVE
                       AIR SEA DIR/SP/G            HT
                 (UTC) (F)     (DEG/KT/KT) (MB)    (FT)
BURNS HARBOR     1820   17     140/ 12/ 20 1024.7F
MICHIGAN CITY    1800   15     120/ 11/ 14   N/A

$$

INZ004-005-014>016-021>024-142000-
NORTH CENTRAL INDIANA

CITY           SKY/WX    TMP DP  RH WIND       PRES   REMARKS
ELKHART        CLOUDY    18   3  53 SE12        N/A  WCI   5
GOSHEN         CLOUDY    17   5  59 SE13      30.26F WCI   4
LOGANSPORT +   LGT SNOW  18  10  73 SE13      30.25F VSB 3/4 WCI   4
PERU/GRISSOM   LGT SNOW  17  12  82 SE13      30.22F VSB 1   WCI   3
ROCHESTER +    CLOUDY    19   3  49 SE13      30.24F WCI   7
SOUTH BEND     CLOUDY    15   4  61 SE17G25   30.24F WCI  -1
WARSAW +       CLOUDY    18   3  53 SE12G18   30.24F WCI   5

$$

INZ006>009-017-018-025>027-142000-
NORTHEAST INDIANA

CITY           SKY/WX    TMP DP  RH WIND       PRES   REMARKS
ANGOLA *+      MOSUNNY   16   7  67 SE12      30.25F WCI   3
AUBURN +       CLOUDY    21   5  49 SE3       30.28F
FORT WAYNE     CLOUDY    17   4  56 SE14      30.28F WCI   3
HUNTINGTON +   CLOUDY    17   3  53 E12       30.24F WCI   4

$$

INZ028-029-035-036-043>045-051>053-142000-
WEST CENTRAL INDIANA

CITY           SKY/WX    TMP DP  RH WIND       PRES   REMARKS
CRAWFORDSVL +  LGT SNOW  17  11  78 SE14      30.18F WCI   2
GREENCASTLE +  SNOW      19  12  73 SE13      30.17F VSB 1/2 WCI   7
LAFAYETTE      SNOW      17  14  88 E14       30.19F VSB 1/4 WCI   3
TERRE HAUTE    LGT SNOW  19  15  84 SE13      30.20F VSB 3/4 WCI   6

$$

INZ030>032-037>040-046>048-054>057-064-065-142000-
CENTRAL INDIANA

CITY           SKY/WX    TMP DP  RH WIND       PRES   REMARKS
COLUMBUS       LGT SNOW  19  18  93 SE10      30.24F FOG     WCI   8
FISHERS *+     CLOUDY    16  14  93 SE9       30.20F VSB 3/4 WCI   4
FRANKFORT +    LGT SNOW  18   9  69 E14       30.21F VSB 1   WCI   4
GREENWOOD *+   CLOUDY    19  16  86 SE10      30.23F VSB 1   WCI   8
INDIANAPOLIS   LGT SNOW  18  13  80 E13       30.18F VSB 3/4 WCI   5
-EAGLE CREEK   SNOW      17  14  88 SE10      30.19F VSB 1/2 WCI   5
KOKOMO *+      CLOUDY    18  10  73 SE14      30.23F WCI   4
MARION +       CLOUDY    17  -2  42 SE15      30.24F WCI   3
MT COMFORT *+  CLOUDY    18  12  79 SE10      30.25R WCI   6
SHELBYVILLE    LGT SNOW  20  12  71 SE9       30.24S VSB 3/4 WCI   9
ZIONSVILLE +   SNOW      16  12  85 SE13      30.20F VSB 1/4 WCI   2

$$

INZ033-034-041-042-049-050-058-059-142000-
EAST CENTRAL INDIANA

CITY           SKY/WX    TMP DP  RH WIND       PRES   REMARKS
MUNCIE         CLOUDY    19   4  51 SE13      30.23F WCI   6

$$

INZ060-061-067>069-081>083-085>088-142000-
SOUTHWEST INDIANA

CITY           SKY/WX    TMP DP  RH WIND       PRES   REMARKS
EVANSVILLE     SNOW      24  19  81 E8        30.15F VSB 1/2 WCI  15
HUNTINGBURG *+ CLOUDY    21  16  79 E14       30.18F WCI   8
WASHINGTON +   LGT SNOW  21  17  83 SE10      30.18F VSB 3/4 WCI  10

$$

INZ062-063-066-070>080-084-089>092-142000-
SOUTH CENTRAL AND SOUTHEAST INDIANA

CITY           SKY/WX    TMP DP  RH WIND       PRES   REMARKS
BEDFORD +      LGT SNOW  19  18  93 E7        30.20F WCI  10
BLOOMINGTON    SNOW      20  15  81 SE8       30.19F VSB 1/2 WCI  10
MADISON *+     CLOUDY    23  14  68 SE12      30.22F WCI  12
NORTH VERNON + LGT SNOW  21  14  73 CALM      30.22F
SEYMOUR +      LGT SNOW  21  14  73 E8        30.26F WCI  12

$$





USA.gov is the U.S. government's official web portal to all federal, state and local government web resources and services.